Total_Precipitation_Accumulation
0.75 0.75 0.64 0.46 0.45 0.43 0.38 0.31 0.25 0.16 0.15 0.22 0.21 0.16 0.12 0.12 0.13 0.11 0.09 0.09 0.08 0.08 0.08 0.09 0.13 0.14 0.18 0.24 0.31 0.36 0.36 0.41 0.50 0.56 0.62 0.58 0.55 0.51 0.48 0.42 0.45 0.44 0.42 0.40
0.82 0.64 0.31 0.21 0.26 0.35 0.41 0.40 0.26 0.18 0.18 0.24 0.20 0.13 0.09 0.09 0.11 0.10 0.09 0.09 0.07 0.08 0.09 0.09 0.12 0.17 0.19 0.23 0.28 0.33 0.35 0.36 0.42 0.44 0.49 0.51 0.48 0.46 0.47 0.42 0.41 0.46 0.44 0.42
0.60 0.41 0.20 0.22 0.29 0.36 0.38 0.37 0.27 0.22 0.20 0.24 0.23 0.18 0.08 0.06 0.07 0.07 0.07 0.08 0.07 0.07 0.09 0.08 0.10 0.16 0.20 0.23 0.27 0.30 0.37 0.34 0.37 0.42 0.52 0.55 0.55 0.54 0.53 0.49 0.42 0.41 0.42 0.41
0.41 0.29 0.28 0.31 0.30 0.33 0.36 0.25 0.23 0.25 0.34 0.38 0.30 0.31 0.09 0.06 0.07 0.08 0.08 0.08 0.07 0.08 0.09 0.08 0.09 0.14 0.19 0.22 0.29 0.31 0.38 0.42 0.38 0.44 0.51 0.48 0.47 0.49 0.45 0.43 0.40 0.40 0.42 0.40
0.43 0.31 0.36 0.38 0.26 0.26 0.29 0.23 0.27 0.29 0.38 0.44 0.29 0.33 0.12 0.05 0.10 0.11 0.11 0.10 0.09 0.08 0.09 0.08 0.07 0.12 0.18 0.23 0.29 0.34 0.38 0.45 0.46 0.45 0.47 0.45 0.39 0.40 0.44 0.47 0.47 0.44 0.45 0.45
0.36 0.29 0.34 0.29 0.21 0.23 0.29 0.39 0.50 0.53 0.67 0.75 0.28 0.24 0.14 0.09 0.11 0.10 0.09 0.10 0.11 0.09 0.10 0.09 0.08 0.11 0.16 0.22 0.28 0.32 0.37 0.42 0.50 0.51 0.50 0.45 0.40 0.38 0.44 0.49 0.54 0.52 0.53 0.52
0.51 0.38 0.37 0.32 0.36 0.40 0.52 0.82 1.21 1.29 1.26 0.74 0.14 0.15 0.15 0.10 0.08 0.08 0.08 0.08 0.11 0.12 0.12 0.11 0.10 0.13 0.15 0.20 0.27 0.30 0.33 0.39 0.48 0.54 0.54 0.48 0.40 0.37 0.39 0.44 0.49 0.52 0.54 0.56
0.65 0.49 0.38 0.38 0.44 0.54 0.57 0.71 0.95 0.97 0.68 0.26 0.08 0.10 0.10 0.07 0.05 0.04 0.04 0.05 0.06 0.09 0.12 0.12 0.11 0.13 0.15 0.18 0.24 0.29 0.32 0.35 0.44 0.50 0.52 0.50 0.44 0.39 0.36 0.37 0.42 0.48 0.48 0.47
0.70 0.49 0.28 0.26 0.26 0.36 0.50 0.52 0.45 0.59 0.43 0.25 0.14 0.09 0.08 0.06 0.03 0.03 0.04 0.05 0.06 0.06 0.10 0.13 0.13 0.15 0.15 0.17 0.21 0.27 0.31 0.36 0.43 0.46 0.49 0.51 0.48 0.44 0.38 0.37 0.37 0.42 0.45 0.42
0.76 0.59 0.31 0.26 0.31 0.36 0.44 0.50 0.58 0.84 0.70 0.37 0.16 0.11 0.12 0.08 0.06 0.04 0.05 0.06 0.07 0.07 0.10 0.13 0.12 0.16 0.18 0.19 0.19 0.22 0.31 0.37 0.44 0.46 0.49 0.52 0.51 0.47 0.44 0.42 0.39 0.38 0.41 0.43
0.71 0.72 0.45 0.41 0.46 0.43 0.44 0.59 0.82 0.86 0.62 0.47 0.27 0.17 0.15 0.10 0.07 0.06 0.05 0.07 0.07 0.06 0.09 0.11 0.10 0.14 0.19 0.21 0.20 0.20 0.26 0.36 0.47 0.48 0.47 0.52 0.55 0.51 0.49 0.48 0.43 0.40 0.39 0.44
0.71 0.85 0.61 0.41 0.34 0.28 0.37 0.49 0.64 0.83 0.63 0.35 0.30 0.21 0.14 0.09 0.07 0.06 0.06 0.07 0.08 0.07 0.09 0.09 0.09 0.12 0.17 0.21 0.22 0.22 0.24 0.32 0.43 0.50 0.48 0.50 0.56 0.55 0.53 0.55 0.52 0.48 0.44 0.45
0.84 1.08 0.94 0.68 0.58 0.50 0.50 0.42 0.45 0.53 0.56 0.40 0.30 0.19 0.12 0.09 0.07 0.06 0.05 0.07 0.08 0.09 0.10 0.08 0.08 0.10 0.15 0.17 0.20 0.21 0.23 0.28 0.36 0.47 0.49 0.50 0.54 0.56 0.55 0.55 0.59 0.61 0.61 0.61
0.90 1.06 0.85 0.79 0.67 0.63 0.59 0.42 0.37 0.52 0.62 0.41 0.24 0.15 0.10 0.08 0.08 0.06 0.05 0.06 0.08 0.10 0.10 0.08 0.08 0.09 0.12 0.15 0.17 0.19 0.18 0.23 0.31 0.43 0.53 0.54 0.56 0.56 0.56 0.58 0.62 0.73 0.79 0.82
0.90 0.89 0.42 0.28 0.28 0.33 0.35 0.29 0.29 0.38 0.40 0.32 0.16 0.13 0.14 0.11 0.09 0.08 0.08 0.07 0.08 0.10 0.09 0.07 0.08 0.08 0.10 0.14 0.16 0.16 0.15 0.18 0.26 0.37 0.48 0.55 0.60 0.68 0.72 0.71 0.69 0.75 0.87 0.90
0.85 0.81 0.40 0.21 0.16 0.22 0.25 0.18 0.18 0.19 0.17 0.18 0.13 0.13 0.14 0.12 0.09 0.08 0.08 0.08 0.09 0.09 0.07 0.07 0.07 0.08 0.10 0.12 0.14 0.13 0.15 0.18 0.23 0.32 0.40 0.50 0.64 0.74 0.84 0.84 0.83 0.83 0.87 0.90
0.74 0.71 0.60 0.36 0.18 0.30 0.34 0.19 0.16 0.16 0.13 0.12 0.15 0.14 0.11 0.09 0.08 0.07 0.08 0.10 0.10 0.07 0.06 0.05 0.06 0.08 0.10 0.11 0.12 0.13 0.15 0.18 0.21 0.29 0.38 0.44 0.57 0.68 0.75 0.78 0.80 0.78 0.70 0.66
0.53 0.63 0.77 0.53 0.41 0.60 0.31 0.14 0.12 0.14 0.13 0.12 0.12 0.11 0.10 0.10 0.09 0.07 0.09 0.10 0.08 0.08 0.08 0.07 0.07 0.07 0.08 0.09 0.10 0.11 0.11 0.14 0.20 0.27 0.37 0.40 0.48 0.58 0.61 0.64 0.67 0.67 0.56 0.52
0.28 0.53 0.86 0.72 0.57 0.34 0.16 0.12 0.16 0.20 0.21 0.14 0.11 0.09 0.08 0.08 0.09 0.10 0.11 0.09 0.09 0.08 0.08 0.08 0.08 0.07 0.06 0.07 0.08 0.08 0.09 0.11 0.17 0.24 0.32 0.37 0.42 0.53 0.52 0.52 0.57 0.57 0.55 0.48
0.30 0.53 0.94 0.81 0.62 0.31 0.17 0.10 0.12 0.19 0.26 0.13 0.10 0.10 0.10 0.11 0.21 0.18 0.15 0.11 0.09 0.06 0.06 0.07 0.06 0.04 0.04 0.04 0.05 0.05 0.07 0.10 0.14 0.19 0.25 0.29 0.33 0.41 0.40 0.40 0.42 0.43 0.42 0.40
0.56 0.80 0.90 0.66 0.49 0.21 0.13 0.12 0.14 0.34 0.37 0.15 0.10 0.10 0.11 0.17 0.26 0.21 0.14 0.11 0.08 0.06 0.05 0.05 0.05 0.04 0.03 0.04 0.04 0.04 0.05 0.08 0.11 0.15 0.20 0.24 0.26 0.30 0.32 0.34 0.36 0.37 0.38 0.37
0.43 0.58 0.57 0.52 0.54 0.26 0.12 0.18 0.32 0.36 0.19 0.11 0.09 0.08 0.09 0.10 0.09 0.08 0.09 0.08 0.06 0.05 0.05 0.04 0.04 0.03 0.03 0.03 0.04 0.03 0.04 0.07 0.09 0.13 0.17 0.21 0.25 0.25 0.28 0.30 0.33 0.33 0.36 0.39
0.28 0.35 0.38 0.36 0.28 0.17 0.14 0.21 0.23 0.16 0.11 0.08 0.08 0.08 0.09 0.08 0.07 0.08 0.09 0.08 0.07 0.06 0.06 0.05 0.04 0.04 0.03 0.03 0.04 0.04 0.05 0.08 0.10 0.12 0.14 0.19 0.23 0.20 0.25 0.29 0.34 0.34 0.36 0.41
0.18 0.17 0.21 0.17 0.10 0.08 0.09 0.12 0.12 0.11 0.08 0.06 0.06 0.08 0.08 0.08 0.07 0.08 0.08 0.08 0.09 0.07 0.06 0.05 0.04 0.04 0.04 0.03 0.03 0.04 0.06 0.09 0.10 0.11 0.11 0.16 0.21 0.21 0.22 0.26 0.33 0.35 0.36 0.48
0.15 0.15 0.17 0.12 0.05 0.04 0.05 0.07 0.08 0.09 0.07 0.04 0.04 0.05 0.05 0.05 0.05 0.07 0.09 0.09 0.09 0.09 0.07 0.05 0.04 0.05 0.05 0.03 0.03 0.04 0.06 0.09 0.11 0.11 0.12 0.15 0.21 0.24 0.24 0.26 0.29 0.33 0.34 0.52
0.10 0.12 0.15 0.11 0.05 0.06 0.04 0.04 0.05 0.06 0.06 0.05 0.05 0.04 0.03 0.03 0.05 0.05 0.07 0.09 0.08 0.08 0.08 0.06 0.04 0.04 0.05 0.04 0.04 0.05 0.06 0.09 0.12 0.14 0.15 0.19 0.24 0.27 0.27 0.27 0.29 0.34 0.34 0.41